Stations météo

Publicité
Montpellier, France (7643): Température de l'air & dewpoint: 11.12.2017 22:00:00 - 17.12.2017 22:00:00 (CET)Montpellier, France (7643): Température de l'air 5cm: 11.12.2017 22:00:00 - 17.12.2017 22:00:00 (CET)Montpellier, France (7643): Température de l'air -20cm & Température de l'air -100cm: 11.12.2017 22:00:00 - 17.12.2017 22:00:00 (CET)Montpellier, France (7643): Vitesse du vent & gusts: 11.12.2017 22:00:00 - 17.12.2017 22:00:00 (CET)Montpellier, France (7643): Direction du vent: 11.12.2017 22:00:00 - 17.12.2017 22:00:00 (CET)Montpellier, France (7643): reduced air pressure: 11.12.2017 22:00:00 - 17.12.2017 22:00:00 (CET)Montpellier, France (7643): visibility: 11.12.2017 22:00:00 - 17.12.2017 22:00:00 (CET)Montpellier, France (7643): Ensoleillement: 11.12.2017 22:00:00 - 17.12.2017 22:00:00 (CET)Montpellier, France (7643): Quantités de précipitations: 11.12.2017 22:00:00 - 17.12.2017 22:00:00 (CET)
Date & Time tt [°C] td [°C] tt 5cm [°C] tt -20cm [°C] tt -100cm [°C] ff [km/h] ff [knt] fx [km/h] fx [knt] dd ppp [hPa] vv [km] sd [min] rr [mm]
17.12.2017 22:00:00 3,4 -2,4 1,1 9,4 13,3 5 3 19 10 - 1029,5 10 0 0,0
17.12.2017 21:00:00 4,7 -2,2 2,9 9,4 13,3 11 6 33 18 N 1029,3 10 0 0,0
17.12.2017 20:00:00 6,4 -2,0 5,5 9,4 13,3 21 11 31 17 WNW 1028,5 10 0 0,0
17.12.2017 19:00:00 6,8 -2,1 5,9 9,4 13,3 16 9 31 17 NW 1028,0 10 0 0,0
17.12.2017 18:00:00 7,3 -1,9 6,5 9,4 13,3 18 10 29 16 WNW 1027,4 10 0 0,0
17.12.2017 17:00:00 8,4 -1,7 7,7 9,4 13,3 18 10 37 20 WNW 1026,6 10 52 0,0
17.12.2017 16:00:00 9,9 -1,5 12,5 9,4 13,3 24 13 46 25 WNW 1025,8 10 60 0,0
17.12.2017 15:00:00 10,4 -1,3 14,7 9,3 13,3 34 18 47 25 WNW 1025,3 10 60 0,0
17.12.2017 14:00:00 10,3 -0,5 14,2 9,3 13,3 31 17 54 29 WNW 1025,6 10 60 0,0
17.12.2017 13:00:00 10,0 -0,5 14,1 9,4 13,3 35 19 56 30 NW 1026,2 10 60 0,0
17.12.2017 12:00:00 9,3 -1,5 13,1 9,4 13,3 34 18 45 24 WNW 1026,8 10 60 0,0
17.12.2017 11:00:00 8,3 -2,7 6,8 9,5 13,3 21 11 33 18 NW 1027,3 10 51 0,0
17.12.2017 10:00:00 6,7 -3,3 6,0 9,5 13,3 18 10 29 15 WNW 1026,8 10 43 0,0
17.12.2017 09:00:00 5,3 -3,3 3,0 9,5 13,3 16 9 27 15 NW 1026,0 10 43 0,0
17.12.2017 08:00:00 3,9 -3,9 2,6 9,6 13,4 15 8 23 12 WNW 1025,5 10 0 0,0
17.12.2017 07:00:00 4,0 -4,0 2,8 9,6 13,4 11 6 23 12 WNW 1025,0 10 0 0,0
17.12.2017 06:00:00 4,5 -3,1 3,4 9,6 13,4 18 10 29 15 NW 1024,6 10 0 0,0
17.12.2017 05:00:00 5,0 -2,8 4,1 9,7 13,3 21 11 32 18 WNW 1024,0 10 0 0,0
17.12.2017 04:00:00 4,9 -2,9 4,1 9,7 13,4 19 10 32 17 WNW 1023,6 60 0 0,0
17.12.2017 03:00:00 5,2 -3,4 3,9 9,7 13,4 21 11 35 19 WNW 1023,7 10 0 0,0
17.12.2017 02:00:00 5,2 -3,4 4,5 9,7 13,4 24 13 36 19 WNW 1023,3 10 0 0,0
17.12.2017 01:00:00 6,3 -5,1 4,5 9,7 13,4 26 14 35 19 NW 1022,9 10 0 0,0
17.12.2017 00:00:00 6,3 -4,5 4,5 9,7 13,4 16 9 29 15 WNW 1022,8 10 0 0,0
16.12.2017 23:00:00 5,8 -3,1 3,9 9,7 13,4 13 7 28 15 NW 1022,2 10 0 0,0
16.12.2017 22:00:00 6,2 -2,9 4,6 9,8 13,4 18 10 28 15 NW 1021,6 10 0 0,0
16.12.2017 21:00:00 6,7 -2,0 5,8 9,7 13,4 21 11 35 19 WNW 1021,0 10 0 0,0
16.12.2017 20:00:00 7,0 -1,2 6,0 9,7 13,4 22 12 33 18 NW 1020,1 10 0 0,0
16.12.2017 19:00:00 7,1 -0,9 6,4 9,7 13,4 21 11 38 20 WNW 1019,2 10 0 0,0
16.12.2017 18:00:00 7,8 -1,2 7,0 9,7 13,4 21 11 40 22 WNW 1018,4 10 0 0,0
16.12.2017 17:00:00 9,2 -2,1 8,7 9,7 13,4 20 11 39 21 NW 1017,7 60 54 0,0
16.12.2017 16:00:00 10,3 -1,4 12,4 9,7 13,3 24 13 42 23 WNW 1016,7 10 60 0,0
16.12.2017 15:00:00 11,0 -1,4 14,0 9,7 13,4 27 15 51 28 WNW 1015,7 50 60 0,0
16.12.2017 14:00:00 10,9 -2,2 11,0 9,7 13,4 26 14 46 25 NW 1015,3 10 42 0,0
16.12.2017 13:00:00 11,7 -3,3 15,3 9,7 13,4 34 18 57 31 NNW 1014,7 10 60 0,0
16.12.2017 12:00:00 11,2 -3,3 13,3 9,7 13,4 35 19 52 28 NNW 1014,3 10 60 0,0
16.12.2017 11:00:00 9,5 -1,6 7,9 9,8 13,4 26 14 37 20 NW 1014,6 10 60 0,0
16.12.2017 10:00:00 7,8 -1,2 6,7 9,8 13,4 24 13 36 19 WNW 1014,2 10 60 0,0
16.12.2017 09:00:00 5,5 -1,2 4,5 9,9 13,4 21 11 31 17 W 1013,5 10 40 0,0
16.12.2017 08:00:00 5,5 -2,4 4,4 9,9 13,4 18 10 45 25 W 1012,6 10 0 0,0
16.12.2017 07:00:00 6,4 -2,5 5,2 9,9 13,4 28 15 38 20 W 1011,2 10 0 0,0
16.12.2017 06:00:00 6,2 -2,4 4,5 9,9 13,4 16 9 36 19 W 1010,7 10 0 0,0
16.12.2017 05:00:00 6,6 -2,3 5,4 10,0 13,4 22 12 41 22 W 1010,2 10 0 0,0
16.12.2017 04:00:00 6,4 -1,5 5,5 10,0 13,4 21 11 37 20 WNW 1009,6 10 0 0,0
16.12.2017 03:00:00 6,8 -1,4 5,1 10,0 13,4 24 13 46 25 NW 1009,2 10 0 0,0
16.12.2017 02:00:00 6,1 0,8 5,1 10,0 13,4 34 18 47 25 W 1008,0 10 0 0,0
16.12.2017 01:00:00 6,4 1,3 5,3 10,0 13,4 28 15 41 22 W 1007,7 10 0 0,0
16.12.2017 00:00:00 7,1 2,0 6,5 10,0 13,4 34 18 50 27 W 1007,7 10 0 0,0
15.12.2017 23:00:00 7,9 1,5 6,8 10,0 13,4 31 17 48 26 WNW 1007,1 10 0 0,0
15.12.2017 22:00:00 7,7 1,1 6,7 10,0 13,4 23 13 37 20 W 1006,3 60 0 0,0
15.12.2017 21:00:00 8,2 1,3 5,1 10,0 13,4 24 13 38 20 WNW 1006,1 10 0 0,0
15.12.2017 20:00:00 6,6 1,7 5,1 10,0 13,4 13 7 26 14 WSW 1005,6 10 0 0,0
15.12.2017 19:00:00 8,1 1,9 7,4 10,0 13,4 17 9 41 22 WNW 1005,4 60 0 0,0
15.12.2017 18:00:00 8,9 2,2 8,3 10,0 13,4 24 13 32 17 W 1005,3 10 0 0,0
15.12.2017 17:00:00 9,6 2,0 9,0 9,9 13,4 21 11 42 23 W 1005,5 10 47 0,0
15.12.2017 16:00:00 11,2 2,5 13,8 9,9 13,4 25 14 42 23 WNW 1004,8 53 60 0,0
15.12.2017 15:00:00 12,1 0,5 13,5 10,0 13,4 15 8 32 18 WNW 1004,3 53 54 0,0
15.12.2017 14:00:00 11,9 0,6 9,9 9,9 13,4 26 14 38 21 NW 1004,6 10 50 0,0
15.12.2017 13:00:00 9,8 1,4 10,0 9,9 13,4 21 11 44 24 NW 1005,3 10 2 0,0
15.12.2017 12:00:00 10,0 1,6 8,9 9,9 13,4 35 19 53 29 NNW 1005,4 10 11 0,0
15.12.2017 11:00:00 8,6 1,7 8,1 9,9 13,4 34 18 53 28 NW 1006,1 10 0 0,0
15.12.2017 10:00:00 8,2 1,8 7,6 9,9 13,4 27 15 37 20 WNW 1006,4 60 0 0,0
15.12.2017 09:00:00 8,0 2,4 7,9 9,9 13,4 21 11 26 14 W 1005,2 10 0 0,0
15.12.2017 08:00:00 8,9 1,8 7,7 9,9 13,4 13 7 21 11 WNW 1005,6 10 0 0,0
15.12.2017 07:00:00 9,0 3,2 7,8 9,9 13,4 16 9 38 20 NW 1005,6 10 0 0,0
15.12.2017 06:00:00 9,5 5,9 8,0 9,9 13,4 27 14 38 20 WNW 1004,5 60 0 0,2
15.12.2017 05:00:00 8,8 6,8 7,8 9,8 13,4 13 7 20 11 SW 1004,6 10 0 0,0
15.12.2017 04:00:00 9,5 6,8 8,6 9,8 13,4 9 5 23 12 SW 1005,6 10 0 0,0
15.12.2017 03:00:00 9,8 6,9 8,1 9,8 13,4 13 7 22 12 SW 1006,0 10 0 0,0
15.12.2017 02:00:00 9,8 6,3 8,4 9,7 13,4 11 6 26 14 SSW 1006,0 10 0 0,0
15.12.2017 01:00:00 11,1 7,0 9,5 9,7 13,5 18 10 30 16 SW 1007,2 10 0 0,0
15.12.2017 00:00:00 10,2 6,7 9,0 9,7 13,5 21 11 35 19 WSW 1007,6 10 0 0,0
14.12.2017 23:00:00 10,2 7,4 8,3 9,6 13,4 24 13 31 17 SW 1008,0 10 0 0,0
14.12.2017 22:00:00 9,3 6,0 8,1 9,6 13,4 13 7 18 10 SSW 1008,7 50 0 0,0
14.12.2017 21:00:00 9,1 6,0 6,8 9,6 13,5 9 5 16 8 SW 1009,6 10 0 0,0
14.12.2017 20:00:00 9,7 6,2 7,9 9,5 13,5 8 4 14 8 SSW 1009,6 10 0 0,0
14.12.2017 19:00:00 11,9 6,4 9,8 9,5 13,5 5 3 26 14 SW 1009,3 10 0 0,0
14.12.2017 18:00:00 12,9 6,5 11,5 9,4 13,5 21 11 29 16 WSW 1009,6 10 0 0,0
14.12.2017 17:00:00 14,6 5,9 13,9 9,3 13,5 16 8 32 17 WSW 1010,2 60 34 0,0
14.12.2017 16:00:00 15,6 5,2 15,6 9,2 13,5 21 11 45 24 W 1010,4 10 50 0,0
14.12.2017 15:00:00 15,7 4,7 14,9 9,2 13,5 22 12 41 22 W 1010,9 10 19 0,0
14.12.2017 14:00:00 15,0 7,0 15,3 9,2 13,5 8 4 20 11 W 1011,2 10 8 0,0
14.12.2017 13:00:00 14,8 7,8 17,3 9,1 13,5 11 6 31 17 SSW 1012,3 10 47 0,0
14.12.2017 12:00:00 15,0 7,5 11,8 9,1 13,5 11 6 33 18 WSW 1013,4 52 49 0,0
14.12.2017 11:00:00 10,9 8,3 10,0 9,1 13,5 8 4 11 6 SSW 1014,2 10 0 0,0
14.12.2017 10:00:00 10,4 7,6 9,7 9,1 13,5 9 5 16 9 WSW 1014,2 10 0 0,0
14.12.2017 09:00:00 10,3 7,7 8,5 9,0 13,5 13 7 20 11 W 1014,1 10 0 0,0
14.12.2017 08:00:00 9,2 7,1 8,0 9,0 13,5 9 5 19 10 WSW 1013,7 10 0 0,0
14.12.2017 07:00:00 9,0 7,0 7,4 9,0 13,5 11 6 16 9 SW 1013,8 10 0 0,0
14.12.2017 06:00:00 8,9 6,9 7,5 9,0 13,5 9 5 16 9 WSW 1013,2 10 0 0,0
14.12.2017 05:00:00 9,1 7,0 7,9 9,0 13,5 8 4 18 10 W 1013,8 10 0 0,0
14.12.2017 04:00:00 8,9 6,7 7,3 9,0 13,5 10 5 16 9 WSW 1013,8 29 0 0,0
14.12.2017 03:00:00 8,3 6,8 7,4 9,0 13,6 2 1 13 7 - 1014,2 10 0 0,4
14.12.2017 02:00:00 7,9 6,4 6,7 8,9 13,6 9 5 11 6 WSW 1014,4 10 0 0,2
14.12.2017 01:00:00 6,8 5,1 6,6 8,9 13,6 4 2 8 5 NNW 1014,9 10 0 0,0
14.12.2017 00:00:00 6,8 4,8 6,2 8,9 13,6 4 2 7 4 - 1015,4 10 0 0,0
13.12.2017 23:00:00 6,8 4,5 6,1 8,9 13,6 6 3 7 4 ENE 1016,3 15 0 0,0
13.12.2017 22:00:00 7,2 3,2 6,5 8,9 13,6 2 1 8 4 WNW 1016,7 10 0 0,0
13.12.2017 21:00:00 7,0 3,2 6,6 8,9 13,6 5 3 9 5 E 1017,0 10 0 0,0
13.12.2017 20:00:00 7,7 3,2 7,0 8,8 13,6 4 2 7 4 ENE 1017,5 10 0 0,0
13.12.2017 19:00:00 8,0 2,2 7,0 8,8 13,6 5 3 7 4 W 1017,8 10 0 0,0
13.12.2017 18:00:00 8,5 1,6 7,5 8,8 13,6 5 3 9 5 W 1018,2 10 0 0,0
13.12.2017 17:00:00 8,4 1,3 8,0 8,8 13,6 5 3 10 5 SSW 1018,6 10 0 0,0
13.12.2017 16:00:00 9,9 0,5 10,6 8,8 13,6 5 3 18 10 - 1018,7 10 20 0,0
13.12.2017 15:00:00 9,4 1,1 9,9 8,8 13,6 13 7 20 11 SSW 1018,9 10 2 0,0
13.12.2017 14:00:00 9,7 0,0 10,9 8,8 13,6 16 9 24 13 SSW 1019,4 56 20 0,0
13.12.2017 13:00:00 10,6 1,1 11,9 8,9 13,6 4 2 12 6 SSE 1020,4 20 55 0,0
13.12.2017 12:00:00 10,7 2,8 14,6 8,9 13,6 9 5 13 7 E 1021,1 10 60 0,0
13.12.2017 11:00:00 8,6 1,7 4,2 9,0 13,6 2 1 10 6 - 1022,2 10 60 0,0
13.12.2017 10:00:00 3,5 -0,5 2,4 9,1 13,6 8 4 10 5 NW 1022,3 10 52 0,0
13.12.2017 09:00:00 -0,3 -3,3 -3,6 9,1 13,6 3 2 9 5 ESE 1022,2 50 40 0,0
13.12.2017 08:00:00 -2,4 -4,4 -3,8 9,2 13,6 5 3 10 6 NE 1022,2 55 0 0,0
13.12.2017 07:00:00 -1,8 -3,8 -3,4 9,2 13,7 2 1 10 6 NW 1022,3 10 0 0,0
13.12.2017 06:00:00 0,1 -2,8 -3,4 9,3 13,6 5 3 8 4 WNW 1022,0 10 0 0,0
13.12.2017 05:00:00 -0,5 -3,0 -2,5 9,4 13,7 5 3 10 5 - 1021,7 10 0 0,0
13.12.2017 04:00:00 -0,7 -3,9 -2,4 9,4 13,6 5 3 12 7 NE 1021,9 10 0 0,0
13.12.2017 03:00:00 0,1 -3,3 -2,3 9,4 13,7 8 4 10 6 N 1021,8 60 0 0,0
13.12.2017 02:00:00 2,4 -2,3 0,2 9,4 13,6 8 4 18 10 NNW 1021,8 10 0 0,0
13.12.2017 01:00:00 3,7 -1,7 2,6 9,5 13,7 13 7 18 10 NW 1021,8 10 0 0,0
13.12.2017 00:00:00 3,7 -1,5 2,4 9,4 13,6 8 4 15 8 - 1021,2 10 0 0,0
12.12.2017 23:00:00 4,0 -1,0 2,7 9,5 13,7 8 4 16 9 WNW 1021,0 10 0 0,0
12.12.2017 22:00:00 4,3 -0,7 3,2 9,5 13,7 6 4 18 10 WNW 1020,3 54 0 0,0
12.12.2017 21:00:00 5,3 -0,5 4,4 9,5 13,7 15 8 21 12 WNW 1020,0 10 0 0,0
12.12.2017 20:00:00 6,1 -0,2 4,3 9,5 13,7 11 6 16 9 NW 1019,3 10 0 0,0
12.12.2017 19:00:00 5,6 1,9 4,4 9,5 13,7 13 7 19 10 NW 1018,6 10 0 0,0
12.12.2017 18:00:00 7,5 3,9 5,9 9,4 13,7 5 3 19 11 - 1017,5 10 0 0,0
12.12.2017 17:00:00 9,0 0,7 8,2 9,4 13,6 14 8 27 15 NNW 1016,4 20 55 0,0
12.12.2017 16:00:00 9,7 4,7 10,7 9,4 13,7 5 3 13 7 N 1015,6 10 13 0,0
12.12.2017 15:00:00 9,7 4,9 10,7 9,4 13,7 10 5 29 15 NNE 1014,8 46 10 0,0
12.12.2017 14:00:00 10,2 3,5 10,7 9,4 13,7 18 10 26 14 W 1013,8 10 0 0,0
12.12.2017 13:00:00 10,6 3,8 11,4 9,4 13,7 9 5 22 12 WNW 1013,7 10 3 0,0
12.12.2017 12:00:00 10,4 3,9 10,4 9,5 13,7 13 7 27 15 WNW 1013,6 10 37 0,0
12.12.2017 11:00:00 9,5 3,9 6,1 9,5 13,7 16 9 24 13 WNW 1013,1 10 32 0,0
12.12.2017 10:00:00 6,8 3,2 4,7 9,5 13,7 11 6 23 12 W 1012,4 10 0 0,0
12.12.2017 09:00:00 5,4 3,1 4,0 9,6 13,7 16 9 24 13 WSW 1011,2 10 0 0,0
12.12.2017 08:00:00 4,9 2,8 3,6 9,6 13,7 13 7 19 11 W 1009,8 10 0 0,0
12.12.2017 07:00:00 4,6 2,6 0,2 9,6 13,7 9 5 19 11 WNW 1008,6 10 0 0,0
12.12.2017 06:00:00 2,3 1,1 0,1 9,7 13,7 4 2 15 8 - 1007,6 10 0 0,0
12.12.2017 05:00:00 3,6 2,1 1,9 9,7 13,7 8 4 13 7 WSW 1006,8 50 0 0,0
12.12.2017 04:00:00 4,6 2,8 2,6 9,7 13,8 9 5 15 8 WNW 1006,0 10 0 0,0
12.12.2017 03:00:00 5,0 3,0 2,7 9,7 13,7 13 7 20 11 WSW 1005,2 10 0 0,2
12.12.2017 02:00:00 4,2 2,1 2,6 9,7 13,7 8 4 15 8 S 1004,2 10 0 0,0
12.12.2017 01:00:00 5,4 3,1 3,6 9,7 13,7 5 3 23 12 NNW 1002,8 51 0 0,0
12.12.2017 00:00:00 5,4 3,9 3,7 9,7 13,7 16 9 27 15 NW 1001,6 10 0 0,0
11.12.2017 23:00:00 6,4 4,1 4,7 9,7 13,8 21 11 29 16 WSW 1000,3 10 0 0,0
11.12.2017 22:00:00 6,2 4,4 4,1 9,6 13,7 18 10 26 14 WSW 998,9 10 0 0,0

tt = Température de l'air
td = dewpoint
tt 5cm = Température de l'air 5cm
tt -20cm = Température de l'air -20cm
tt -100cm = Température de l'air -100cm
ff = Vitesse du vent
fx = gusts
dd = Direction du vent
ppp = reduced air pressure
vv = visibility
sd = Ensoleillement
rr = Quantités de précipitations

stations d'obs. à proximité